Location: Macksville High School
(37.9611°N, 99.9654°W)
Time: 09:40:28
(UTC+00:00)

Cosmos 220 Rocket - Pass Details

Date: 27 February 2020
Orbit: 576 x 616 km, 74.0° (Epoch: 28 March)

Event Time Altitude Azimuth Distance (km) Brightness Sun altitude
Rises 12:29:45 0° 332° (NNW) 2,793 7.1 -9.7°
Reaches altitude 10° 12:32:05 10° 324° (NW) 1,891 6.2 -9.2°
Maximum altitude 12:35:56 36° 258° (WSW) 923 4.5 -8.5°
Drops below altitude 10° 12:39:47 10° 191° (S) 1,887 6.5 -7.7°
Sets 12:42:07 0° 183° (S) 2,786 7.5 -7.2°
